Regional Weather Roundup
Issued by NWS

Home | Current Version | Previous Version | Graphics & Text | Print | Product List | Glossary On
Versions: 1 2 3 4 5 6 7 8 9 10 11 12 13 14 15 16 17 18 19 20 21 22 23 24 25 26 27 28 29 30 31 32 33 34 35 36 37 38 39 40 41 42 43 44 45 46 47 48 49 50
000
ASUS43 KMPX 121410
RWRMN
WEATHER ROUNDUP FOR MINNESOTA
NATIONAL WEATHER SERVICE TWIN CITIES/CHANHASSEN MN
800 AM CST FRI FEB 12 2016


NOTE: "FAIR" INDICATES FEW OR NO CLOUDS BELOW 12,000 FEET WITH NO
SIGNIFICANT WEATHER AND/OR OBSTRUCTIONS TO VISIBILITY. N/A MEANS
CURRENT SKY AND/OR WEATHER CONDITIONS ARE NOT AVAILABLE.

MNZ060>063-068>070-121500-
   Twin Cities Metro

CITY           SKY/WX    TMP DP  RH WIND       PRES   REMARKS
TWIN CITIES    PTCLDY     7  -1  70 NW17G25   30.34R WCI -12
ST PAUL        CLEAR      7   0  73 NW18      30.35R WCI -12
CRYSTAL        PTCLDY     6  -2  69 NW15      30.33R WCI -12
BLAINE         CLEAR      9   1  72 NW12G21   30.32R WCI  -6
LAKEVILLE      CLEAR      7   1  78 NW17      30.32R WCI -12
EDEN PRAIRIE   CLEAR      8  -1  66 NW14      30.33R WCI  -8
SOUTH ST PAUL  CLEAR      9   0  69 NW17G23   30.33R WCI -10
LAKE ELMO      FAIR       9   1  72 NW13      30.31R WCI  -7
$$
MNZ001>005-007-008-013>017-022>024-027-028-121500-
   Northwest Minnesota

CITY           SKY/WX    TMP DP  RH WIND       PRES   REMARKS
BEMIDJI        PTCLDY    -9 -14  76 NW15      30.39R WCI -30
HALLOCK        CLOUDY    -9 -17  70 N15       30.57R WCI -31
ROSEAU         CLOUDY   -13 -18  77 NW8       30.50R WCI -30
WARROAD        CLOUDY   -13 -18  77 NW9       30.47R WCI -31
THIEF RVR FALL CLEAR     -8 N/A N/A NW16      30.50R WCI -30
CROOKSTON      CLEAR     -6 -11  77 N18       30.56R WCI -29
FOSSTON        CLOUDY    -9 -17  70 NW14G20   30.47R WCI -31
DETROIT LAKES  CLOUDY    -4  -8  84 NW15      30.44R WCI -25
MOORHEAD       MOCLDY    -2  -8  78 N16       30.53R WCI -23
PARK RAPIDS    CLEAR     -5 -13  68 NW15G24   30.37R WCI -26
MAHNOMEN       FAIR      -7 -13  76 N15       30.46R WCI -29
$$
MNZ006-009>011-018-025>026-121500-
   North Central Minnesota

CITY           SKY/WX    TMP DP  RH WIND       PRES   REMARKS
BAUDETTE       CLEAR    -13 -20  71 NW16      30.41R WCI -37
FLAG ISLAND    CLEAR    -15 -20  76 NW17      30.45R WCI -40
INTL FALLS     CLEAR    -12 -18  74 NW12      30.36R WCI -32
WASKISH        CLEAR     -9 -17  70 NW8       30.41R WCI -26
LONGVILLE      PTCLDY    -6 -13  71 NW8G20    30.35R WCI -21
GRAND RAPIDS   CLOUDY    -8 -15  71 N20       30.30R WCI -32
CRANE LAKE     MOCLDY    -9 -17  70 NW9       30.32R WCI -27
ORR            MOCLDY    -9 -17  70 NW12      30.27R HAZE    WCI -29
COOK           PTCLDY    -9 -15  77 NW8       30.28R HAZE    WCI -26
WALKER         FAIR      -7 -14  72 NW14G20   30.37R WCI -28
$$
MNZ012-019>021-037-121500-
   Northeast Minnesota

CITY           SKY/WX    TMP DP  RH WIND       PRES   REMARKS
DULUTH         PTCLDY    -4 -13  65 NW15G26   30.21R WCI -25
ELY            PTCLDY    -9 -15  77 NW15G23   30.21R HAZE    WCI -31
HIBBING        PTCLDY    -9 -15  75 NW22      30.27R WCI -35
EVELETH        PTCLDY    -6 -13  71 NW13G21   30.25R WCI -25
DULUTH HARBOR  CLEAR      1  -9  60 NW18G25   30.31R WCI -19
TWO HARBORS    CLEAR      0  -9  65 NW3       30.21R
SILVER BAY     CLEAR     -2 -11  65 NW6G17    30.18R WCI -14
GRAND MARAIS     N/A     -2 -13  59 VRB6      30.21R WCI -14
G MARAIS ARPRT MOCLDY    -9 -18  64 NW10G23   30.04R HAZE    WCI -28
$$
MNZ029>031-032-039>041-046>048-054>057-064-121500-
   West Central Minnesota

CITY           SKY/WX    TMP DP  RH WIND       PRES   REMARKS
FERGUS FALLS   CLEAR     -2  -8  78 N16       30.50R WCI -23
WHEATON        PTCLDY     3  -2  78 NW14      30.51R WCI -15
MORRIS         PTCLDY     1  -4  78 N20       30.44R HAZE    WCI -20
ALEXANDRIA     CLEAR      0  -8  69 N20       30.39R WCI -22
ELBOW LAKE     FAIR       0  -6  76 NW15G22   30.45R WCI -20
WADENA         CLEAR     -4  -9  77 NW13      30.39R WCI -23
GLENWOOD       PTCLDY     0  -8  71 NW12      30.39R WCI -18
APPLETON       CLEAR      5  -2  72 NW13G20   30.47R WCI -12
BENSON         PTCLDY     3  -4  72 N9G21     30.43R WCI -11
ORTONVILLE     CLOUDY     3  -6  66 N15       30.47R WCI -15
MADISON        CLEAR      7  -2  66 NW18      30.48R WCI -12
WILLMAR        FAIR       7   1  78 NW16      30.41R WCI -11
$$
MNZ033>034-036-042>043-049>051-058-059-121500-
   Central Minnesota

CITY           SKY/WX    TMP DP  RH WIND       PRES   REMARKS
ST CLOUD       PTCLDY     2  -4  76 NW15      30.35R WCI -17
SAUK CENTRE    FAIR       1  -7  70 NW15G21   30.38R WCI -18
PAYNESVILLE    CLEAR      3  -4  72 NW8       30.38R WCI -11
AITKIN         PTCLDY     0 -11  60 NW13G18   30.32R WCI -18
PINE RIVER     PTCLDY    -4 -11  71 NW10G17   30.38R WCI -21
BRAINERD       PTCLDY    -2 -10  69 NW20      30.35R WCI -24
STAPLES        CLEAR     -4  -9  77 NW13      30.37R WCI -23
LONG PRAIRIE   FAIR       0  -8  71 NW14      30.37R WCI -19
LITTLE FALLS   CLEAR      3  -6  66 NW13      30.37R WCI -14
LITCHFIELD     PTCLDY     5  -2  72 NW15G25   30.37R WCI -13
BUFFALO        PTCLDY     5  -2  74 NW9G17    30.36R WCI  -9
MAPLE LAKE     PTCLDY     5   0  79 NW12      30.37R WCI -11
$$
MNZ037-044-045-052-053-121500-
   East Central Minnesota

CITY           SKY/WX    TMP DP  RH WIND       PRES   REMARKS
PRINCETON      CLEAR      3  -2  78 W9        30.33R WCI -11
MORA           CLEAR      5  -4  66 NW15G24   30.32R WCI -13
CAMBRIDGE      PTCLDY     7  -4  61 NW8       30.31R WCI  -6
RUSH CITY      PTCLDY     5  -3  71 NW12      30.31R WCI -11
MOOSE LAKE     PTCLDY     1  -9  60 NW12G21   30.27R WCI -15
HINCKLEY       FAIR       5  -4  66 NW15G23   30.29R WCI -13
CLOQUET        PTCLDY    -2 -11  65 NW17G28   30.24R WCI -24
MCGREGOR       PTCLDY     0  -8  71 NW18G24   30.30R WCI -22
$$
MNZ071>073-080-081-089-090-097-098-121500-
   Southwest Minnesota

CITY           SKY/WX    TMP DP  RH WIND       PRES   REMARKS
MONTEVIDEO     PTCLDY     5   0  78 N15G21    30.46R WCI -13
GRANITE FALLS  CLEAR      8   1  72 NW17      30.45R WCI -10
CANBY          CLOUDY    11   2  68 NW10      30.47R WCI  -3
MARSHALL       CLOUDY     8   0  69 N20       30.43R WCI -11
REDWOOD FALLS  CLEAR      7   0  73 NW13G24   30.41R WCI  -9
OLIVIA         CLEAR      9   3  78 NW15      30.40R WCI  -8
PIPESTONE      FLURRIES  10   1  67 N8        30.39R WCI  -1
WINDOM         MOCLDY     9   3  78 NW23      30.37R FOG     WCI -12
WORTHINGTON    CLOUDY     9   1  72 N17       30.39R WCI -10
JACKSON        CLOUDY    10   5  79 NW23      30.36R HAZE    WCI -10
TRACY          CLOUDY    10   3  76 N18G29    30.41R HAZE    WCI  -9
SLAYTON        LGT SNOW   9   7  90 NW15      30.39R WCI  -8
$$
MNZ065>067-074>077-082>085-091>093-121500-
   South Central Minnesota

CITY           SKY/WX    TMP DP  RH WIND       PRES   REMARKS
MANKATO        CLEAR      9   1  72 NW18      30.34R WCI -10
NEW ULM        CLEAR      9   1  72 NW17G24   30.36R WCI -10
ST JAMES       CLEAR      9   5  85 NW18      30.38R WCI -10
FAIRMONT       CLEAR     10   3  72 NW18G24   30.34R WCI  -8
GLENCOE        CLEAR      8   2  78 NW14      30.36R WCI  -9
FARIBAULT      CLEAR      9   1  72 NW12G18   30.32R WCI  -6
OWATONNA       CLEAR      9   1  72 NW16      30.31R WCI  -9
WASECA         CLEAR     10   3  72 NW14G21   30.33R WCI  -5
ALBERT LEA     MOCLDY    10   5  79 NW14G21   30.29R WCI  -5
$$
MNZ078>079-086>088-094>096-121500-
   Southeast Minnesota

CITY           SKY/WX    TMP DP  RH WIND       PRES   REMARKS
ROCHESTER      MOCLDY     8   2  76 NW22G28   30.24R WCI -12
RED WING       CLEAR      9   1  72 NW8       30.29R WCI  -4
STANTON        CLEAR      9   2  73 NW13      30.31R WCI  -6
DODGE CENTER   PTCLDY     9   1  72 NW16G22   30.26R WCI  -9
WINONA         CLEAR     12   7  79 NW13      30.27R WCI  -3
AUSTIN         MOCLDY    10   5  79 NW15      30.27R WCI  -6
PRESTON        PTCLDY     8   3  79 NW13G18   30.24R WCI  -7
$$
ABBREVIATIONS USED IN REMARKS
   TC - TEMPERATURES IN CELSIUS
  WCI - WIND CHILL INDEX
   HX - HEAT INDEX
  VSB - VISIBILITY
$$



USA.gov is the U.S. government's official web portal to all federal, state and local government web resources and services.